CZ-2D DEB, 43402

Orbit data source: Space-Track

CZ-2D DEB, 43402 is space debris in SSO originally from a launch on Sat, 29 Sep 2012 UTC launched from the Jiuquan Satellite Launch Center, China (JSC). Debris objects in space refer to the collection of defunct objects orbiting the Earth. Examples of debris include non-operational satellites, rocket bodies, and fragments generated from explosions, collisions, or faulty payload assembly.

Loading next visibility...
CZ-2D DEB details
Identifier
43402, 2012-052B
Orbit
SSO
Last TLE update1 day ago
Origin
Flag of CNCNSA (CN / PRC)
ManufacturerSAST
MissionSpacecraft
Bus & MotorUnknown
MassUnknown
Launch date (UTC)
2012-09-29 (12 years ago)
Launch vehicleUnknown
Launch site
Jiuquan Satellite Launch Center, China (JSC)
Object type
Payload
Rocket body
Debris
Shape & HBRUnknown
Radar Cross SectionSmall (<0.1 m²)

Expand to show TLE details & history

TLE from 1 day ago
0 CZ-2D DEB
1 43402U 12052B   24360.55557421  .00010954  00000-0  29565-2 0  9990
2 43402  98.0567 118.3582 0216378 233.5614 124.5454 14.35044427577377
Epoch: 2024-12-25T13:20Z
Definitive object data (Epoch: 2024-12-25T13:20:01.611Z)
Latitude-0.00008°
Longitude-176.19614°
Altitude867.89 km
Speed7.372 km/s
True Right ascension07h 53m 25s
True Declination0° 00' 00"
Sunlit
Object was in full shadow at TLE epoch
Visualization TLE readout
Latitude44.77978°
Longitude176.88719°
Altitude935.81 km
Speed7.308 km/s
Apparent Right ascension06h 25m 57s
Apparent Declination6° 12' 17"
Sunlit
Object is in full shadow
Visualization observer readout
Local Sidereal Time17:22:23
Azimuth338.651° N
Elevation-41.605°
Doppler factor1
Orbital elements
Apogee altitude926.739 km
Perigee altitude617.311 km
Semi-major axis7,150.162 km
Eccentricity0.0216378
Inclination98.0567°
RAAN118.3582°
Arg. of periapsis233.5614°
True anomaly126.55643°
Mean anomaly124.5454°
Eccentric anomaly125.55402°
Mean motion3.58979 °/min
BSTAR0.0029565
Orbital period100.28 mins
Loading maneuver chart data...
Loading historical data...
Loading historical data...
Loading historical data...
Loading historical data...
Loading historical data...
Loading historical data...
Loading historical data...
Other satellites on launch #52 in the year 2012 (2012-09-29 UTC)

CZ-2D DEB Visibility forecast

Observer location: undefined°, undefined

Span
Click to sort rows by Start time (UTC) header in descending order
Start Az.
Max El. time (UTC)
Max El. Az.
Max El.
End time (UTC)
End Az.
7 mins2024-12-26 20:03:58.082Z40.049° NE2024-12-26 20:07:58.082Z96.224° ESE24.152°2024-12-26 20:10:58.082Z142.67° SSE
7 mins2024-12-26 21:43:58.082Z344.836° N2024-12-26 21:46:58.082Z294.88° NW29.388°2024-12-26 21:50:58.082Z231.266° WSW
8 mins2024-12-27 07:18:58.082Z124.787° SE2024-12-27 07:22:58.082Z59.102° ENE31.461°2024-12-27 07:26:58.082Z7.839° NNE
8 mins2024-12-27 08:57:58.082Z211.957° SW2024-12-27 09:01:58.082Z270.06° WNW27.916°2024-12-27 09:05:58.082Z321.479° NNW
|